Location: Unspecified
(41.1637°N, 24.2901°E)
Time: 08:27:30
(UTC+01:00)

ISS - Pass Details

Date: 12 February 2019
Orbit: 403 x 411 km, 51.6° (Epoch: 17 February)

Event Time Altitude Azimuth Distance (km) Brightness Sun altitude
Rises 17:36:59 0° 290° (WNW) 2,332 1.2 -8.9°
Reaches altitude 10° 17:39:44 10° 265° (W) 1,469 0.7 -9.4°
Maximum altitude 17:41:38 15° 229° (SW) 1,223 -0.5 -9.8°
Drops below altitude 10° 17:43:32 10° 194° (SSW) 1,465 -0.7 -10.1°
Sets 17:46:16 0° 169° (S) 2,322 0.0 -10.6°
